Location: Cerroniocc
(13.7547°S, 72.0222°W)
Time: 22:37:53
(UTC+00:00)

Cosmos 2084 Rocket - Pass Details

Date: 05 July 2020
Orbit: 554 x 627 km, 62.8° (Epoch: 10 August)

Event Time Altitude Azimuth Distance (km) Brightness Sun altitude
Rises 23:08:07 0° 355° (N) 2,891 7.4 -8.7°
Reaches altitude 10° 23:10:36 10° 5° (N) 1,989 6.4 -9.3°
Maximum altitude 23:14:35 31° 67° (ENE) 1,095 4.5 -10.2°
Enters shadow 23:17:49 14° 124° (SE) 1,734 5.2 -10.9°
